Simultaneous Nadir Overpasses (SNOs) Predictions

Prediction of SNOs near US between NOAA-19 and NPP Satellite Orbit:

Table of predicted SNOs near US for the next 10.0 days since TLE Epoch: 3/1/2012
Index Date (NOAA-19) Time (NOAA-19) NOAA-19 Lat,Lon Date (NPP) Time (NPP) NPP Lat,Lon Distance(km) Time Diff (sec)
1 03/03/2012 07:46:27 49.91, -83.02 03/03/2012 07:51:11 50.52, -86.10 229.65 284
2 03/03/2012 09:28:32 49.93,-108.53 03/03/2012 09:32:41 50.52,-111.48 219.50 249
3 03/03/2012 17:35:15 45.16, -69.79 03/03/2012 17:36:39 44.74, -71.81 165.37 84
4 03/03/2012 19:17:56 47.20, -96.13 03/03/2012 19:18:45 46.83, -98.00 147.29 49
5 03/03/2012 21:00:36 49.17,-122.50 03/03/2012 21:00:50 48.85,-124.21 130.10 14
6 03/04/2012 07:39:09 38.05, -84.84 03/04/2012 07:35:41 38.25, -85.99 103.27 208
7 03/04/2012 09:21:51
